This is the latest recevied weather packets stored in our database for station/object HB9FHL-13. If no packets are shown the sender has not sent any weather packets the latest 10 day(s).
| Time | Temp. | Humidity | Pressure | Rain* | Wind** | Luminosity | Snow |
|---|---|---|---|---|---|---|---|
| 1777879312 | 13.89° C | - | 1016.3 hPa | 0 mm | - | - | - |
| 1777879011 | 13.89° C | - | 1017.7 hPa | 0 mm | - | - | - |
| 1777878711 | 14.44° C | - | 1018.8 hPa | 0 mm | - | - | - |
| 1777878471 | 14.44° C | - | 1016.8 hPa | 0 mm | - | - | - |
| 1777878411 | 14.44° C | - | 1016.8 hPa | 0 mm | - | - | - |
| 1777878277 | 14.44° C | - | 1016.5 hPa | 0 mm | - | - | - |
| 1777878109 | 14.44° C | - | 1016.5 hPa | 0 mm | - | - | - |
| 1777877808 | 13.89° C | - | 1018.5 hPa | 0 mm | - | - | - |
| 1777877507 | 13.33° C | - | 1020.8 hPa | 0 mm | - | - | - |
| 1777876907 | 14.44° C | - | 1012.9 hPa | 0 mm | - | - | - |
| 1777876606 | 13.89° C | - | 1012 hPa | 0 mm | - | - | - |
| 1777876304 | 13.89° C | - | 1013.7 hPa | 0 mm | - | - | - |
| 1777876003 | 12.78° C | - | 1015.2 hPa | 0 mm | - | - | - |
| 1777875703 | 12.78° C | - | 1014.8 hPa | 0 mm | - | - | - |
| 1777875403 | 13.33° C | - | 1010.1 hPa | 0 mm | - | - | - |
| 1777875102 | 12.78° C | - | 1021.1 hPa | 0 mm | - | - | - |
| 1777874802 | 12.78° C | - | 1013.8 hPa | 0 mm | - | - | - |
| 1777874501 | 12.78° C | - | 1014.2 hPa | 0 mm | - | - | - |
| 1777874201 | 12.22° C | - | 1016.6 hPa | 0 mm | - | - | - |
| 1777873900 | 13.33° C | - | 1014.6 hPa | 0 mm | - | - | - |
| 1777873600 | 12.22° C | - | 1013.5 hPa | 0 mm | - | - | - |
| 1777873299 | 12.78° C | - | 1016.1 hPa | 0 mm | - | - | - |
| 1777872999 | 13.33° C | - | 1017.5 hPa | 0 mm | - | - | - |
| 1777872698 | 13.33° C | - | 1012.7 hPa | 0 mm | - | - | - |
| 1777872398 | 13.33° C | - | 1009.7 hPa | 0 mm | - | - | - |
* Rain since midnight (hover to see other rain measurements)
** Current wind speed in m/s (hover to see current wind gust speed)